Time,TemperatureF,DewpointF,PressureIn,WindDirection,WindDirectionDegrees,WindSpeedMPH,WindSpeedGustMPH,Humidity,HourlyPrecipIn,Conditions,Clouds,dailyrainin,SoftwareType,DateUTC
2013-02-18 00:00:00,14.4,5.8,29.97,SE,135,0.4,0.7,68,0.00,,,0.00,WUHU216HW,2013-02-18 05:00:00,
2013-02-18 00:05:00,14.4,5.8,29.97,SE,135,0.0,0.7,68,0.00,,,0.00,WUHU216HW,2013-02-18 05:05:00,
2013-02-18 00:10:00,14.4,5.8,29.98,SE,135,0.0,0.7,68,0.00,,,0.00,WUHU216HW,2013-02-18 05:10:00,
2013-02-18 00:15:00,14.2,6.3,29.98,SE,135,1.1,1.8,70,0.00,,,0.00,WUHU216HW,2013-02-18 05:15:00,
2013-02-18 00:20:00,14.6,6.3,29.98,SE,135,0.0,1.8,69,0.00,,,0.00,WUHU216HW,2013-02-18 05:20:00,
2013-02-18 00:25:00,14.6,6.0,29.98,SE,135,0.4,1.6,68,0.00,,,0.00,WUHU216HW,2013-02-18 05:25:00,
2013-02-18 00:30:00,14.4,6.1,29.98,SE,135,0.0,0.7,69,0.00,,,0.00,WUHU216HW,2013-02-18 05:30:00,
2013-02-18 00:35:00,14.4,6.1,29.98,SE,135,0.7,0.9,69,0.00,,,0.00,WUHU216HW,2013-02-18 05:35:00,
2013-02-18 00:40:00,14.2,5.9,29.98,SE,135,0.4,1.1,69,0.00,,,0.00,WUHU216HW,2013-02-18 05:40:00,
2013-02-18 00:45:00,14.2,5.9,29.98,NNW,338,0.4,1.1,69,0.00,,,0.00,WUHU216HW,2013-02-18 05:45:00,
2013-02-18 00:50:00,14.2,5.9,29.98,East,90,0.4,1.1,69,0.00,,,0.00,WUHU216HW,2013-02-18 05:50:00,
2013-02-18 00:55:00,14.0,6.1,29.98,East,90,0.4,1.1,70,0.00,,,0.00,WUHU216HW,2013-02-18 05:55:00,
2013-02-18 01:00:00,14.0,5.8,29.98,West,270,0.0,0.7,69,0.00,,,0.00,WUHU216HW,2013-02-18 06:00:00,
2013-02-18 01:05:00,13.9,5.6,29.98,NNE,23,0.0,0.9,69,0.00,,,0.00,WUHU216HW,2013-02-18 06:05:00,
2013-02-18 01:10:00,13.7,5.4,29.98,WNW,293,0.0,2.0,69,0.00,,,0.00,WUHU216HW,2013-02-18 06:10:00,
2013-02-18 01:15:00,13.3,5.4,29.98,NNW,338,0.4,2.0,70,0.00,,,0.00,WUHU216HW,2013-02-18 06:15:00,
2013-02-18 01:20:00,13.3,5.7,29.97,South,180,0.2,1.1,71,0.00,,,0.00,WUHU216HW,2013-02-18 06:20:00,
2013-02-18 01:25:00,13.1,5.5,29.97,South,180,0.0,1.1,71,0.00,,,0.00,WUHU216HW,2013-02-18 06:25:00,
2013-02-18 01:30:00,13.1,5.5,29.98,South,180,0.0,0.7,71,0.00,,,0.00,WUHU216HW,2013-02-18 06:30:00,
2013-02-18 01:35:00,13.3,5.7,29.98,South,180,0.0,0.9,71,0.00,,,0.00,WUHU216HW,2013-02-18 06:35:00,
2013-02-18 01:40:00,13.1,5.5,29.98,NW,315,0.9,1.3,71,0.00,,,0.00,WUHU216HW,2013-02-18 06:40:00,
2013-02-18 01:45:00,13.0,5.3,29.98,NW,315,0.0,1.3,71,0.00,,,0.00,WUHU216HW,2013-02-18 06:45:00,
2013-02-18 01:50:00,12.6,5.0,29.98,NW,315,0.4,0.7,71,0.00,,,0.00,WUHU216HW,2013-02-18 06:50:00,
2013-02-18 01:55:00,12.4,4.8,29.99,NNE,23,0.4,1.3,71,0.00,,,0.00,WUHU216HW,2013-02-18 06:55:00,
2013-02-18 02:00:00,12.1,4.4,29.99,WSW,248,0.0,1.3,71,0.00,,,0.00,WUHU216HW,2013-02-18 07:00:00,
2013-02-18 02:05:00,12.2,4.6,29.99,NE,45,0.7,0.7,71,0.00,,,0.00,WUHU216HW,2013-02-18 07:05:00,
2013-02-18 02:10:00,12.1,4.7,29.99,SW,225,0.2,0.7,72,0.00,,,0.00,WUHU216HW,2013-02-18 07:10:00,
2013-02-18 02:15:00,11.9,4.9,29.99,SSW,203,0.0,0.7,73,0.00,,,0.00,WUHU216HW,2013-02-18 07:15:00,
2013-02-18 02:20:00,11.9,4.9,29.99,NNW,338,0.0,2.0,73,0.00,,,0.00,WUHU216HW,2013-02-18 07:20:00,
2013-02-18 02:25:00,11.7,4.7,29.99,NNW,338,0.0,2.0,73,0.00,,,0.00,WUHU216HW,2013-02-18 07:25:00,
2013-02-18 02:30:00,11.7,4.7,29.99,ESE,113,0.0,0.9,73,0.00,,,0.00,WUHU216HW,2013-02-18 07:30:00,
2013-02-18 02:35:00,11.5,4.5,29.99,South,180,0.9,0.9,73,0.00,,,0.00,WUHU216HW,2013-02-18 07:35:00,
2013-02-18 02:40:00,11.9,4.9,29.99,WSW,248,0.7,0.9,73,0.00,,,0.00,WUHU216HW,2013-02-18 07:40:00,
2013-02-18 02:45:00,11.9,4.9,30.00,WSW,248,0.9,0.9,73,0.00,,,0.00,WUHU216HW,2013-02-18 07:45:00,
2013-02-18 02:50:00,11.9,4.9,30.00,North,0,0.2,2.0,73,0.00,,,0.00,WUHU216HW,2013-02-18 07:50:00,
2013-02-18 02:55:00,11.5,4.5,30.00,NNE,23,0.0,2.0,73,0.00,,,0.00,WUHU216HW,2013-02-18 07:55:00,
2013-02-18 03:00:00,11.5,4.5,29.99,NNE,23,0.0,0.4,73,0.00,,,0.00,WUHU216HW,2013-02-18 08:00:00,
2013-02-18 03:05:00,11.3,4.3,29.99,ESE,113,0.0,0.4,73,0.00,,,0.00,WUHU216HW,2013-02-18 08:05:00,
2013-02-18 03:10:00,11.5,4.5,30.00,SE,135,0.0,0.7,73,0.00,,,0.00,WUHU216HW,2013-02-18 08:10:00,
2013-02-18 03:15:00,11.5,4.8,30.00,West,270,0.0,2.9,74,0.00,,,0.00,WUHU216HW,2013-02-18 08:15:00,
2013-02-18 03:20:00,11.5,4.5,30.00,West,270,0.0,2.9,73,0.00,,,0.00,WUHU216HW,2013-02-18 08:20:00,
2013-02-18 03:25:00,11.5,4.5,30.00,North,0,0.4,1.1,73,0.00,,,0.00,WUHU216HW,2013-02-18 08:25:00,
2013-02-18 03:30:00,11.5,4.5,29.99,ENE,68,0.7,1.3,73,0.00,,,0.00,WUHU216HW,2013-02-18 08:30:00,
2013-02-18 03:35:00,11.3,4.6,30.00,ESE,113,0.0,1.3,74,0.00,,,0.00,WUHU216HW,2013-02-18 08:35:00,
2013-02-18 03:40:00,11.5,4.8,30.00,South,180,0.0,0.7,74,0.00,,,0.00,WUHU216HW,2013-02-18 08:40:00,
2013-02-18 03:45:00,11.3,4.3,30.00,South,180,0.0,0.4,73,0.00,,,0.00,WUHU216HW,2013-02-18 08:45:00,
2013-02-18 03:50:00,11.5,4.5,30.00,South,180,0.0,0.4,73,0.00,,,0.00,WUHU216HW,2013-02-18 08:50:00,
2013-02-18 03:55:00,11.7,5.0,30.00,WSW,248,0.0,1.1,74,0.00,,,0.00,WUHU216HW,2013-02-18 08:55:00,
2013-02-18 04:00:00,11.7,4.7,30.00,SSE,158,1.1,1.1,73,0.00,,,0.00,WUHU216HW,2013-02-18 09:00:00,
2013-02-18 04:05:00,11.5,4.8,30.00,SSE,158,0.2,1.1,74,0.00,,,0.00,WUHU216HW,2013-02-18 09:05:00,
2013-02-18 04:10:00,11.3,4.6,30.00,NNW,338,0.0,1.1,74,0.00,,,0.00,WUHU216HW,2013-02-18 09:10:00,
2013-02-18 04:15:00,11.2,4.4,30.00,NNE,23,0.0,0.9,74,0.00,,,0.00,WUHU216HW,2013-02-18 09:15:00,
2013-02-18 04:20:00,11.2,4.4,30.00,SE,135,0.7,0.7,74,0.00,,,0.00,WUHU216HW,2013-02-18 09:20:00,
2013-02-18 04:25:00,11.2,4.7,30.00,NNW,338,0.0,2.9,75,0.00,,,0.00,WUHU216HW,2013-02-18 09:25:00,
2013-02-18 04:30:00,11.0,4.5,30.01,NNW,338,0.0,2.9,75,0.00,,,0.00,WUHU216HW,2013-02-18 09:30:00,
2013-02-18 04:35:00,11.2,4.4,30.01,NNW,338,0.0,0.0,74,0.00,,,0.00,WUHU216HW,2013-02-18 09:35:00,
2013-02-18 04:40:00,11.2,4.4,30.01,WNW,293,0.0,0.0,74,0.00,,,0.00,WUHU216HW,2013-02-18 09:40:00,
2013-02-18 04:45:00,11.2,4.4,30.01,NW,315,0.2,0.4,74,0.00,,,0.00,WUHU216HW,2013-02-18 09:45:00,
2013-02-18 04:50:00,11.2,4.7,30.01,WSW,248,0.0,0.4,75,0.00,,,0.00,WUHU216HW,2013-02-18 09:50:00,
2013-02-18 04:55:00,11.2,4.4,30.02,NNW,338,0.0,0.4,74,0.00,,,0.00,WUHU216HW,2013-02-18 09:55:00,
2013-02-18 05:00:00,11.2,4.4,30.02,NNW,338,0.0,0.4,74,0.00,,,0.00,WUHU216HW,2013-02-18 10:00:00,
2013-02-18 05:05:00,11.2,4.7,30.02,West,270,0.4,0.4,75,0.00,,,0.00,WUHU216HW,2013-02-18 10:05:00,
2013-02-18 05:10:00,11.3,4.9,30.02,WSW,248,0.2,0.7,75,0.00,,,0.00,WUHU216HW,2013-02-18 10:10:00,
2013-02-18 05:15:00,11.5,4.8,30.03,NW,315,0.0,0.7,74,0.00,,,0.00,WUHU216HW,2013-02-18 10:15:00,
2013-02-18 05:20:00,11.5,4.8,30.03,WNW,293,0.0,0.2,74,0.00,,,0.00,WUHU216HW,2013-02-18 10:20:00,
2013-02-18 05:25:00,11.5,5.0,30.03,NNW,338,0.0,1.6,75,0.00,,,0.00,WUHU216HW,2013-02-18 10:25:00,
2013-02-18 05:30:00,11.5,5.0,30.03,NW,315,0.0,2.2,75,0.00,,,0.00,WUHU216HW,2013-02-18 10:30:00,
2013-02-18 05:35:00,11.5,5.0,30.04,NW,315,0.0,2.2,75,0.00,,,0.00,WUHU216HW,2013-02-18 10:35:00,
2013-02-18 05:40:00,11.3,4.9,30.04,NW,315,0.0,0.7,75,0.00,,,0.00,WUHU216HW,2013-02-18 10:40:00,
2013-02-18 05:46:00,11.2,4.7,30.04,NW,315,0.0,0.4,75,0.00,,,0.00,WUHU216HW,2013-02-18 10:46:00,
2013-02-18 05:51:00,11.3,4.9,30.05,NW,315,0.0,0.4,75,0.00,,,0.00,WUHU216HW,2013-02-18 10:51:00,
2013-02-18 05:56:00,11.2,4.7,30.05,NW,315,0.0,0.2,75,0.00,,,0.00,WUHU216HW,2013-02-18 10:56:00,
2013-02-18 06:01:00,11.0,4.5,30.05,WSW,248,0.0,0.4,75,0.00,,,0.00,WUHU216HW,2013-02-18 11:01:00,
2013-02-18 06:06:00,11.0,4.5,30.05,West,270,0.0,0.4,75,0.00,,,0.00,WUHU216HW,2013-02-18 11:06:00,
2013-02-18 06:11:00,10.8,4.3,30.04,NE,45,0.0,1.3,75,0.00,,,0.00,WUHU216HW,2013-02-18 11:11:00,
2013-02-18 06:16:00,10.8,4.3,30.04,NNW,338,0.0,1.3,75,0.00,,,0.00,WUHU216HW,2013-02-18 11:16:00,
2013-02-18 06:21:00,11.0,4.5,30.05,NNW,338,0.0,0.4,75,0.00,,,0.00,WUHU216HW,2013-02-18 11:21:00,
2013-02-18 06:26:00,11.0,4.5,30.05,NNW,338,0.0,0.4,75,0.00,,,0.00,WUHU216HW,2013-02-18 11:26:00,
2013-02-18 06:31:00,10.8,4.3,30.05,NNW,338,0.0,0.4,75,0.00,,,0.00,WUHU216HW,2013-02-18 11:31:00,
2013-02-18 06:36:00,10.8,4.3,30.05,NNW,338,0.0,0.2,75,0.00,,,0.00,WUHU216HW,2013-02-18 11:36:00,
2013-02-18 06:41:00,10.8,4.3,30.05,NE,45,0.0,0.4,75,0.00,,,0.00,WUHU216HW,2013-02-18 11:41:00,
2013-02-18 06:46:00,10.8,4.3,30.05,NE,45,0.0,0.4,75,0.00,,,0.00,WUHU216HW,2013-02-18 11:46:00,
2013-02-18 06:51:00,10.8,4.6,30.05,NNW,338,0.0,0.4,76,0.00,,,0.00,WUHU216HW,2013-02-18 11:51:00,
2013-02-18 06:56:00,11.0,4.5,30.05,North,0,0.4,0.4,75,0.00,,,0.00,WUHU216HW,2013-02-18 11:56:00,
2013-02-18 07:01:00,11.0,4.8,30.05,SW,225,0.0,0.7,76,0.00,,,0.00,WUHU216HW,2013-02-18 12:01:00,
2013-02-18 07:06:00,11.2,5.0,30.05,South,180,0.0,0.7,76,0.00,,,0.00,WUHU216HW,2013-02-18 12:06:00,
2013-02-18 07:11:00,11.3,5.1,30.05,South,180,0.0,0.0,76,0.00,,,0.00,WUHU216HW,2013-02-18 12:11:00,
2013-02-18 07:16:00,11.5,5.3,30.06,West,270,0.2,0.7,76,0.00,,,0.00,WUHU216HW,2013-02-18 12:16:00,
2013-02-18 07:21:00,11.5,5.0,30.06,WNW,293,0.0,0.7,75,0.00,,,0.00,WUHU216HW,2013-02-18 12:21:00,
2013-02-18 07:26:00,11.2,4.7,30.06,NNE,23,0.0,0.4,75,0.00,,,0.00,WUHU216HW,2013-02-18 12:26:00,
2013-02-18 07:31:00,11.0,4.5,30.06,NNW,338,0.0,1.3,75,0.00,,,0.00,WUHU216HW,2013-02-18 12:31:00,
2013-02-18 07:36:00,10.8,4.3,30.07,NNW,338,0.0,1.3,75,0.00,,,0.00,WUHU216HW,2013-02-18 12:36:00,
2013-02-18 07:41:00,10.6,4.4,30.07,NNE,23,0.0,0.4,76,0.00,,,0.00,WUHU216HW,2013-02-18 12:41:00,
2013-02-18 07:46:00,10.8,4.6,30.07,West,270,0.0,0.9,76,0.00,,,0.00,WUHU216HW,2013-02-18 12:46:00,
2013-02-18 07:51:00,11.2,5.2,30.07,WSW,248,0.2,0.9,77,0.00,,,0.00,WUHU216HW,2013-02-18 12:51:00,
2013-02-18 07:56:00,11.3,5.1,30.08,WSW,248,0.4,0.4,76,0.00,,,0.00,WUHU216HW,2013-02-18 12:56:00,
2013-02-18 08:01:00,11.9,5.9,30.08,West,270,0.0,0.4,77,0.00,,,0.00,WUHU216HW,2013-02-18 13:01:00,
2013-02-18 08:06:00,11.9,5.7,30.08,NNW,338,0.0,0.4,76,0.00,,,0.00,WUHU216HW,2013-02-18 13:06:00,
2013-02-18 08:11:00,12.1,5.9,30.08,NNW,338,0.0,0.2,76,0.00,,,0.00,WUHU216HW,2013-02-18 13:11:00,
2013-02-18 08:16:00,12.2,6.0,30.08,NNW,338,0.0,0.2,76,0.00,,,0.00,WUHU216HW,2013-02-18 13:16:00,
2013-02-18 08:21:00,12.6,6.7,30.08,NNW,338,0.4,0.4,77,0.00,,,0.00,WUHU216HW,2013-02-18 13:21:00,
2013-02-18 08:26:00,13.1,7.2,30.08,NNW,338,0.0,0.4,77,0.00,,,0.00,WUHU216HW,2013-02-18 13:26:00,
2013-02-18 08:32:00,13.3,7.1,30.09,NNW,338,0.0,0.4,76,0.00,,,0.00,WUHU216HW,2013-02-18 13:32:00,
2013-02-18 08:36:00,14.0,7.8,30.09,NNW,338,0.0,0.0,76,0.00,,,0.00,WUHU216HW,2013-02-18 13:36:00,
2013-02-18 08:41:00,14.6,8.6,30.09,NW,315,0.4,0.9,77,0.00,,,0.00,WUHU216HW,2013-02-18 13:41:00,
2013-02-18 08:46:00,15.3,9.1,30.09,NNW,338,0.4,0.9,76,0.00,,,0.00,WUHU216HW,2013-02-18 13:46:00,
2013-02-18 08:52:00,15.8,9.5,30.09,NNW,338,0.0,0.9,76,0.00,,,0.00,WUHU216HW,2013-02-18 13:52:00,
2013-02-18 08:57:00,16.6,10.3,30.09,West,270,1.8,1.8,76,0.00,,,0.00,WUHU216HW,2013-02-18 13:57:00,
2013-02-18 09:02:00,17.6,11.3,30.09,WSW,248,0.7,1.8,76,0.00,,,0.00,WUHU216HW,2013-02-18 14:02:00,
2013-02-18 09:07:00,18.4,12.0,30.09,SSE,158,0.7,1.8,76,0.00,,,0.00,WUHU216HW,2013-02-18 14:07:00,
2013-02-18 09:12:00,19.1,12.1,30.09,SSW,203,0.4,1.1,74,0.00,,,0.00,WUHU216HW,2013-02-18 14:12:00,
2013-02-18 09:17:00,19.8,13.1,30.09,SW,225,0.4,1.1,75,0.00,,,0.00,WUHU216HW,2013-02-18 14:17:00,
2013-02-18 09:22:00,20.3,13.3,30.09,ESE,113,2.0,2.0,74,0.00,,,0.00,WUHU216HW,2013-02-18 14:22:00,
2013-02-18 09:27:00,20.9,13.2,30.09,East,90,1.1,2.0,72,0.00,,,0.00,WUHU216HW,2013-02-18 14:27:00,
2013-02-18 09:32:00,21.8,14.1,30.09,SW,225,1.1,2.5,72,0.00,,,0.00,WUHU216HW,2013-02-18 14:32:00,
2013-02-18 09:37:00,22.0,14.3,30.09,SW,225,1.8,2.5,72,0.00,,,0.00,WUHU216HW,2013-02-18 14:37:00,
2013-02-18 09:42:00,22.1,14.1,30.09,SW,225,0.4,1.8,71,0.00,,,0.00,WUHU216HW,2013-02-18 14:42:00,
2013-02-18 09:47:00,22.5,12.8,30.08,NNW,338,0.4,1.8,66,0.00,,,0.00,WUHU216HW,2013-02-18 14:47:00,
2013-02-18 09:52:00,22.9,13.1,30.08,SE,135,1.1,2.5,66,0.00,,,0.00,WUHU216HW,2013-02-18 14:52:00,
2013-02-18 09:57:00,23.9,14.9,30.08,WSW,248,1.8,2.7,68,0.00,,,0.00,WUHU216HW,2013-02-18 14:57:00,
2013-02-18 10:02:00,24.8,16.0,30.08,NW,315,1.1,2.7,69,0.00,,,0.00,WUHU216HW,2013-02-18 15:02:00,
2013-02-18 10:07:00,25.6,16.7,30.08,SW,225,1.3,2.7,69,0.00,,,0.00,WUHU216HW,2013-02-18 15:07:00,
2013-02-18 10:12:00,25.9,16.7,30.08,WSW,248,1.1,2.7,68,0.00,,,0.00,WUHU216HW,2013-02-18 15:12:00,
2013-02-18 10:17:00,26.5,17.3,30.08,SW,225,2.0,2.9,68,0.00,,,0.00,WUHU216HW,2013-02-18 15:17:00,
2013-02-18 10:22:00,26.8,16.2,30.08,WSW,248,3.4,4.7,64,0.00,,,0.00,WUHU216HW,2013-02-18 15:22:00,
2013-02-18 10:27:00,27.5,16.2,30.07,WSW,248,1.8,4.7,62,0.00,,,0.00,WUHU216HW,2013-02-18 15:27:00,
2013-02-18 10:32:00,28.4,18.2,30.07,SSE,158,0.7,3.4,65,0.00,,,0.00,WUHU216HW,2013-02-18 15:32:00,
2013-02-18 10:37:00,29.5,19.2,30.07,SSE,158,2.0,2.2,65,0.00,,,0.00,WUHU216HW,2013-02-18 15:37:00,
2013-02-18 10:42:00,30.6,19.1,30.07,SSW,203,2.2,2.2,62,0.00,,,0.00,WUHU216HW,2013-02-18 15:42:00,
2013-02-18 10:47:00,31.7,21.2,30.07,SSW,203,0.9,2.5,65,0.00,,,0.00,WUHU216HW,2013-02-18 15:47:00,
2013-02-18 10:52:00,32.8,21.5,30.07,SSW,203,2.0,2.9,63,0.00,,,0.00,WUHU216HW,2013-02-18 15:52:00,
2013-02-18 10:57:00,33.5,22.1,30.07,South,180,0.7,3.6,63,0.00,,,0.00,WUHU216HW,2013-02-18 15:57:00,
2013-02-18 11:02:00,34.2,21.3,30.07,WSW,248,0.9,3.6,59,0.00,,,0.00,WUHU216HW,2013-02-18 16:02:00,
2013-02-18 11:07:00,34.0,20.7,30.07,ENE,68,1.8,3.6,58,0.00,,,0.00,WUHU216HW,2013-02-18 16:07:00,
2013-02-18 11:12:00,33.7,19.5,30.07,SE,135,1.1,2.0,56,0.00,,,0.00,WUHU216HW,2013-02-18 16:12:00,
2013-02-18 11:17:00,34.0,21.2,30.06,WSW,248,2.0,2.7,59,0.00,,,0.00,WUHU216HW,2013-02-18 16:17:00,
2013-02-18 11:22:00,34.9,22.5,30.06,WSW,248,0.7,2.7,60,0.00,,,0.00,WUHU216HW,2013-02-18 16:22:00,
2013-02-18 11:27:00,36.0,22.2,30.06,SE,135,0.7,2.5,57,0.00,,,0.00,WUHU216HW,2013-02-18 16:27:00,
2013-02-18 11:32:00,36.0,22.2,30.06,SE,135,1.3,2.5,57,0.00,,,0.00,WUHU216HW,2013-02-18 16:32:00,
2013-02-18 11:37:00,35.8,20.3,30.06,North,0,0.7,2.5,53,0.00,,,0.00,WUHU216HW,2013-02-18 16:37:00,
2013-02-18 11:43:00,35.8,20.3,30.05,SSW,203,1.6,2.9,53,0.00,,,0.00,WUHU216HW,2013-02-18 16:43:00,
2013-02-18 11:48:00,36.4,22.1,30.05,WSW,248,0.9,2.9,56,0.00,,,0.00,WUHU216HW,2013-02-18 16:48:00,
2013-02-18 11:53:00,37.1,22.3,30.05,West,270,3.6,3.6,55,0.00,,,0.00,WUHU216HW,2013-02-18 16:53:00,
2013-02-18 11:58:00,37.3,22.5,30.05,West,270,1.1,3.6,55,0.00,,,0.00,WUHU216HW,2013-02-18 16:58:00,
2013-02-18 12:03:00,37.6,23.3,30.05,WSW,248,2.7,3.8,56,0.00,,,0.00,WUHU216HW,2013-02-18 17:03:00,
2013-02-18 12:07:00,38.2,23.3,30.05,SSE,158,2.5,3.8,55,0.00,,,0.00,WUHU216HW,2013-02-18 17:07:00,
2013-02-18 12:13:00,38.5,23.7,30.04,SW,225,2.0,3.4,55,0.00,,,0.00,WUHU216HW,2013-02-18 17:13:00,
2013-02-18 12:18:00,38.5,23.2,30.04,WNW,293,2.2,3.1,54,0.00,,,0.00,WUHU216HW,2013-02-18 17:18:00,
2013-02-18 12:23:00,38.7,23.4,30.04,SE,135,0.2,4.7,54,0.00,,,0.00,WUHU216HW,2013-02-18 17:23:00,
2013-02-18 12:28:00,39.1,22.4,30.04,ESE,113,2.2,4.7,51,0.00,,,0.00,WUHU216HW,2013-02-18 17:28:00,
2013-02-18 12:33:00,39.2,23.4,30.03,SE,135,3.4,4.5,53,0.00,,,0.00,WUHU216HW,2013-02-18 17:33:00,
2013-02-18 12:38:00,40.0,24.1,30.03,SW,225,0.9,3.4,53,0.00,,,0.00,WUHU216HW,2013-02-18 17:38:00,
2013-02-18 12:43:00,40.9,25.4,30.03,West,270,4.3,4.3,54,0.00,,,0.00,WUHU216HW,2013-02-18 17:43:00,
2013-02-18 12:48:00,42.1,27.0,30.03,WSW,248,2.7,4.3,55,0.00,,,0.00,WUHU216HW,2013-02-18 17:48:00,
2013-02-18 12:53:00,43.4,27.4,30.02,WSW,248,2.2,4.3,53,0.00,,,0.00,WUHU216HW,2013-02-18 17:53:00,
2013-02-18 12:58:00,44.3,27.7,30.02,WSW,248,2.5,4.5,52,0.00,,,0.00,WUHU216HW,2013-02-18 17:58:00,
2013-02-18 13:03:00,45.0,28.0,30.02,SW,225,3.1,4.5,51,0.00,,,0.00,WUHU216HW,2013-02-18 18:03:00,
2013-02-18 13:08:00,45.4,27.8,30.02,WSW,248,2.9,4.7,50,0.00,,,0.00,WUHU216HW,2013-02-18 18:08:00,
2013-02-18 13:13:00,45.4,27.8,30.01,SW,225,3.4,6.5,50,0.00,,,0.00,WUHU216HW,2013-02-18 18:13:00,
2013-02-18 13:18:00,45.5,28.0,30.01,SSW,203,2.5,6.5,50,0.00,,,0.00,WUHU216HW,2013-02-18 18:18:00,
2013-02-18 13:23:00,45.7,28.2,30.01,SW,225,1.8,6.0,50,0.00,,,0.00,WUHU216HW,2013-02-18 18:23:00,
2013-02-18 13:28:00,46.1,27.9,30.01,WSW,248,3.4,5.1,49,0.00,,,0.00,WUHU216HW,2013-02-18 18:28:00,
2013-02-18 13:33:00,46.4,28.3,30.00,SSE,158,4.3,5.1,49,0.00,,,0.00,WUHU216HW,2013-02-18 18:33:00,
2013-02-18 13:38:00,46.6,26.8,30.00,WSW,248,2.7,4.5,46,0.00,,,0.00,WUHU216HW,2013-02-18 18:38:00,
2013-02-18 13:43:00,46.4,27.2,30.00,WSW,248,3.8,4.3,47,0.00,,,0.00,WUHU216HW,2013-02-18 18:43:00,
2013-02-18 13:48:00,46.6,27.9,30.00,SSW,203,2.9,4.5,48,0.00,,,0.00,WUHU216HW,2013-02-18 18:48:00,
2013-02-18 13:53:00,47.0,28.2,30.00,WSW,248,2.9,6.3,48,0.00,,,0.00,WUHU216HW,2013-02-18 18:53:00,
2013-02-18 13:58:00,47.0,28.2,30.00,SW,225,3.6,6.3,48,0.00,,,0.00,WUHU216HW,2013-02-18 18:58:00,
2013-02-18 14:03:00,47.3,28.5,29.99,WSW,248,3.8,5.4,48,0.00,,,0.00,WUHU216HW,2013-02-18 19:03:00,
2013-02-18 14:08:00,47.5,28.2,29.99,WSW,248,3.8,4.7,47,0.00,,,0.00,WUHU216HW,2013-02-18 19:08:00,
2013-02-18 14:13:00,47.7,27.3,29.99,WSW,248,3.6,4.7,45,0.00,,,0.00,WUHU216HW,2013-02-18 19:13:00,
2013-02-18 14:18:00,47.2,27.3,29.99,SW,225,2.0,3.8,46,0.00,,,0.00,WUHU216HW,2013-02-18 19:18:00,
2013-02-18 14:23:00,46.6,26.8,29.99,WSW,248,4.0,4.0,46,0.00,,,0.00,WUHU216HW,2013-02-18 19:23:00,
2013-02-18 14:28:00,46.3,27.0,29.99,WSW,248,4.5,4.7,47,0.00,,,0.00,WUHU216HW,2013-02-18 19:28:00,
2013-02-18 14:33:00,45.7,26.6,29.99,SW,225,2.5,5.4,47,0.00,,,0.00,WUHU216HW,2013-02-18 19:33:00,
2013-02-18 14:38:00,45.2,26.0,29.98,WSW,248,4.3,5.4,47,0.00,,,0.00,WUHU216HW,2013-02-18 19:38:00,
2013-02-18 14:43:00,45.0,26.5,29.98,SW,225,2.5,4.7,48,0.00,,,0.00,WUHU216HW,2013-02-18 19:43:00,
2013-02-18 14:48:00,45.2,26.6,29.98,SSW,203,2.5,5.4,48,0.00,,,0.00,WUHU216HW,2013-02-18 19:48:00,
2013-02-18 14:53:00,45.2,26.6,29.98,SSW,203,3.6,5.4,48,0.00,,,0.00,WUHU216HW,2013-02-18 19:53:00,
2013-02-18 14:58:00,45.4,27.3,29.98,SW,225,0.9,4.0,49,0.00,,,0.00,WUHU216HW,2013-02-18 19:58:00,
2013-02-18 15:03:00,45.5,27.5,29.97,WSW,248,1.8,3.6,49,0.00,,,0.00,WUHU216HW,2013-02-18 20:03:00,
2013-02-18 15:08:00,45.5,27.5,29.98,West,270,2.2,3.6,49,0.00,,,0.00,WUHU216HW,2013-02-18 20:08:00,
2013-02-18 15:13:00,45.7,27.6,29.98,WSW,248,1.1,3.4,49,0.00,,,0.00,WUHU216HW,2013-02-18 20:13:00,
2013-02-18 15:18:00,45.7,27.6,29.98,SSW,203,2.5,4.0,49,0.00,,,0.00,WUHU216HW,2013-02-18 20:18:00,
2013-02-18 15:23:00,45.7,27.1,29.97,WSW,248,2.0,4.0,48,0.00,,,0.00,WUHU216HW,2013-02-18 20:23:00,
2013-02-18 15:28:00,45.7,27.6,29.97,WSW,248,4.0,4.0,49,0.00,,,0.00,WUHU216HW,2013-02-18 20:28:00,
2013-02-18 15:33:00,45.7,27.6,29.97,SSW,203,1.1,5.4,49,0.00,,,0.00,WUHU216HW,2013-02-18 20:33:00,
2013-02-18 15:39:00,45.7,27.6,29.98,WSW,248,2.0,5.4,49,0.00,,,0.00,WUHU216HW,2013-02-18 20:39:00,
2013-02-18 15:44:00,45.7,27.6,29.98,SW,225,1.3,5.4,49,0.00,,,0.00,WUHU216HW,2013-02-18 20:44:00,
2013-02-18 15:49:00,45.7,28.2,29.98,SW,225,0.9,3.4,50,0.00,,,0.00,WUHU216HW,2013-02-18 20:49:00,
2013-02-18 15:54:00,45.7,27.6,29.98,WSW,248,2.2,4.7,49,0.00,,,0.00,WUHU216HW,2013-02-18 20:54:00,
2013-02-18 15:59:00,45.7,28.2,29.98,NW,315,2.0,4.7,50,0.00,,,0.00,WUHU216HW,2013-02-18 20:59:00,
2013-02-18 16:04:00,45.5,28.0,29.97,WSW,248,3.8,3.8,50,0.00,,,0.00,WUHU216HW,2013-02-18 21:04:00,
2013-02-18 16:09:00,45.5,28.0,29.97,SW,225,1.8,3.8,50,0.00,,,0.00,WUHU216HW,2013-02-18 21:09:00,
2013-02-18 16:14:00,45.2,27.6,29.97,South,180,1.1,3.8,50,0.00,,,0.00,WUHU216HW,2013-02-18 21:14:00,
2013-02-18 16:19:00,45.0,27.6,29.97,WSW,248,0.0,4.0,50,0.00,,,0.00,WUHU216HW,2013-02-18 21:19:00,
2013-02-18 16:24:00,44.6,27.2,29.97,SSW,203,1.1,4.5,50,0.00,,,0.00,WUHU216HW,2013-02-18 21:24:00,
2013-02-18 16:29:00,44.5,27.0,29.97,SSW,203,1.6,4.5,50,0.00,,,0.00,WUHU216HW,2013-02-18 21:29:00,
2013-02-18 16:34:00,44.5,27.5,29.97,SW,225,1.8,2.9,51,0.00,,,0.00,WUHU216HW,2013-02-18 21:34:00,
2013-02-18 16:39:00,44.5,27.5,29.97,WSW,248,2.5,3.4,51,0.00,,,0.00,WUHU216HW,2013-02-18 21:39:00,
2013-02-18 16:44:00,44.3,27.3,29.97,SSW,203,0.7,3.4,51,0.00,,,0.00,WUHU216HW,2013-02-18 21:44:00,
2013-02-18 16:49:00,44.3,27.3,29.96,WSW,248,1.3,2.5,51,0.00,,,0.00,WUHU216HW,2013-02-18 21:49:00,
2013-02-18 16:54:00,44.3,27.7,29.96,SSW,203,1.3,1.6,52,0.00,,,0.00,WUHU216HW,2013-02-18 21:54:00,
2013-02-18 16:59:00,44.1,27.5,29.96,SW,225,0.0,1.3,52,0.00,,,0.00,WUHU216HW,2013-02-18 21:59:00,
2013-02-18 17:04:00,43.9,27.5,29.96,SW,225,0.0,1.1,52,0.00,,,0.00,WUHU216HW,2013-02-18 22:04:00,
2013-02-18 17:09:00,43.9,27.5,29.96,SW,225,0.4,1.3,52,0.00,,,0.00,WUHU216HW,2013-02-18 22:09:00,
2013-02-18 17:14:00,43.6,27.1,29.96,SW,225,0.0,1.3,52,0.00,,,0.00,WUHU216HW,2013-02-18 22:14:00,
2013-02-18 17:19:00,43.4,26.9,29.97,SW,225,0.0,0.7,52,0.00,,,0.00,WUHU216HW,2013-02-18 22:19:00,
2013-02-18 17:24:00,43.0,26.6,29.96,South,180,0.0,0.4,52,0.00,,,0.00,WUHU216HW,2013-02-18 22:24:00,
2013-02-18 17:29:00,42.5,26.6,29.96,SSE,158,0.0,0.7,53,0.00,,,0.00,WUHU216HW,2013-02-18 22:29:00,
2013-02-18 17:34:00,42.5,26.6,29.96,South,180,0.0,0.7,53,0.00,,,0.00,WUHU216HW,2013-02-18 22:34:00,
2013-02-18 17:39:00,42.1,25.8,29.96,SSE,158,0.0,0.7,52,0.00,,,0.00,WUHU216HW,2013-02-18 22:39:00,
2013-02-18 17:44:00,41.9,26.0,29.96,SSE,158,0.0,0.7,53,0.00,,,0.00,WUHU216HW,2013-02-18 22:44:00,
2013-02-18 17:49:00,41.4,25.0,29.96,SSE,158,0.0,0.0,52,0.00,,,0.00,WUHU216HW,2013-02-18 22:49:00,
2013-02-18 17:54:00,41.0,25.1,29.96,SSE,158,0.0,0.0,53,0.00,,,0.00,WUHU216HW,2013-02-18 22:54:00,
2013-02-18 17:59:00,40.7,24.8,29.96,SSE,158,0.0,0.0,53,0.00,,,0.00,WUHU216HW,2013-02-18 22:59:00,
2013-02-18 18:04:00,40.1,24.8,29.96,SSE,158,0.0,0.0,54,0.00,,,0.00,WUHU216HW,2013-02-18 23:04:00,
2013-02-18 18:09:00,39.8,24.4,29.96,ESE,113,0.0,0.4,54,0.01,,,0.00,WUHU216HW,2013-02-18 23:09:00,
2013-02-18 18:14:00,39.4,24.5,29.96,ESE,113,0.0,0.4,55,0.01,,,0.00,WUHU216HW,2013-02-18 23:14:00,
2013-02-18 18:19:00,39.1,24.1,29.96,ESE,113,0.0,0.0,55,0.01,,,0.00,WUHU216HW,2013-02-18 23:19:00,
2013-02-18 18:24:00,38.7,24.2,29.96,ESE,113,0.0,0.0,56,0.01,,,0.00,WUHU216HW,2013-02-18 23:24:00,
2013-02-18 18:29:00,38.5,24.1,29.96,ESE,113,0.0,0.0,56,0.01,,,0.00,WUHU216HW,2013-02-18 23:29:00,
2013-02-18 18:34:00,38.3,24.0,29.96,ESE,113,0.0,0.0,56,0.01,,,0.00,WUHU216HW,2013-02-18 23:34:00,
2013-02-18 18:39:00,38.2,23.8,29.96,ESE,113,0.0,0.0,56,0.01,,,0.00,WUHU216HW,2013-02-18 23:39:00,
2013-02-18 18:44:00,38.0,24.0,29.96,ESE,113,0.0,0.0,57,0.01,,,0.00,WUHU216HW,2013-02-18 23:44:00,
2013-02-18 18:49:00,37.8,23.9,29.96,ESE,113,0.0,0.0,57,0.01,,,0.00,WUHU216HW,2013-02-18 23:49:00,
2013-02-18 18:54:00,37.3,23.4,29.96,ESE,113,0.0,0.0,57,0.01,,,0.00,WUHU216HW,2013-02-18 23:54:00,
2013-02-18 18:59:00,37.1,24.1,29.96,ESE,113,0.0,0.0,59,0.01,,,0.00,WUHU216HW,2013-02-18 23:59:00,
2013-02-18 19:04:00,36.9,23.5,29.96,ESE,113,0.0,0.0,58,0.00,,,0.00,WUHU216HW,2013-02-19 00:04:00,
2013-02-18 19:09:00,36.7,23.8,29.96,ESE,113,0.0,0.0,59,0.00,,,0.00,WUHU216HW,2013-02-19 00:09:00,
2013-02-18 19:14:00,36.4,23.4,29.96,ESE,113,0.0,0.0,59,0.00,,,0.00,WUHU216HW,2013-02-19 00:14:00,
2013-02-18 19:19:00,36.2,23.3,29.96,SSE,158,0.0,0.0,59,0.00,,,0.00,WUHU216HW,2013-02-19 00:19:00,
2013-02-18 19:24:00,36.0,23.6,29.96,West,270,0.0,0.9,60,0.00,,,0.00,WUHU216HW,2013-02-19 00:24:00,
2013-02-18 19:29:00,35.6,23.2,29.96,NNW,338,0.0,0.9,60,0.00,,,0.00,WUHU216HW,2013-02-19 00:29:00,
2013-02-18 19:34:00,35.3,22.9,29.96,North,0,0.0,0.4,60,0.00,,,0.00,WUHU216HW,2013-02-19 00:34:00,
2013-02-18 19:39:00,35.1,23.0,29.96,North,0,0.0,0.4,61,0.00,,,0.00,WUHU216HW,2013-02-19 00:39:00,
2013-02-18 19:44:00,34.9,22.9,29.95,North,0,0.0,0.4,61,0.00,,,0.00,WUHU216HW,2013-02-19 00:44:00,
2013-02-18 19:49:00,34.7,23.8,29.95,South,180,0.4,1.1,64,0.00,,,0.00,WUHU216HW,2013-02-19 00:49:00,
2013-02-18 19:54:00,34.6,22.9,29.95,WNW,293,0.0,1.1,62,0.00,,,0.00,WUHU216HW,2013-02-19 00:54:00,
2013-02-18 19:59:00,34.2,22.9,29.95,WNW,293,0.0,1.1,63,0.00,,,0.00,WUHU216HW,2013-02-19 00:59:00,
2013-02-18 20:04:00,34.0,22.7,29.95,WNW,293,0.0,0.7,63,0.00,,,0.00,WUHU216HW,2013-02-19 01:04:00,
2013-02-18 20:09:00,33.5,22.5,29.95,WNW,293,0.0,0.0,64,0.00,,,0.00,WUHU216HW,2013-02-19 01:09:00,
2013-02-18 20:15:00,33.1,23.0,29.95,ESE,113,0.0,0.4,66,0.00,,,0.00,WUHU216HW,2013-02-19 01:15:00,
2013-02-18 20:20:00,32.9,23.1,29.95,SE,135,0.0,0.9,67,0.00,,,0.00,WUHU216HW,2013-02-19 01:20:00,
2013-02-18 20:25:00,32.8,23.0,29.95,SE,135,0.0,0.9,67,0.00,,,0.00,WUHU216HW,2013-02-19 01:25:00,
2013-02-18 20:30:00,32.8,23.7,29.95,SE,135,0.0,0.7,69,0.00,,,0.00,WUHU216HW,2013-02-19 01:30:00,
2013-02-18 20:35:00,32.6,23.1,29.95,SE,135,0.0,0.7,68,0.00,,,0.00,WUHU216HW,2013-02-19 01:35:00,
2013-02-18 20:40:00,32.4,23.4,29.95,SE,135,0.0,0.0,69,0.00,,,0.00,WUHU216HW,2013-02-19 01:40:00,
2013-02-18 20:45:00,32.2,23.6,29.94,SE,135,0.0,0.0,70,0.00,,,0.00,WUHU216HW,2013-02-19 01:45:00,
2013-02-18 20:50:00,32.0,23.0,29.94,ESE,113,0.0,0.0,69,0.00,,,0.00,WUHU216HW,2013-02-19 01:50:00,
2013-02-18 20:55:00,32.0,22.7,29.94,ESE,113,0.0,0.0,68,0.00,,,0.00,WUHU216HW,2013-02-19 01:55:00,
2013-02-18 21:00:00,32.0,22.7,29.94,SSE,158,0.0,0.0,68,0.00,,,0.00,WUHU216HW,2013-02-19 02:00:00,
2013-02-18 21:05:00,32.0,22.7,29.94,SSE,158,0.0,0.4,68,0.00,,,0.00,WUHU216HW,2013-02-19 02:05:00,
2013-02-18 21:10:00,31.9,22.5,29.94,SSE,158,0.0,0.4,68,0.00,,,0.00,WUHU216HW,2013-02-19 02:10:00,
2013-02-18 21:15:00,31.9,22.5,29.94,SSE,158,0.0,0.0,68,0.00,,,0.00,WUHU216HW,2013-02-19 02:15:00,
2013-02-18 21:20:00,31.5,22.1,29.94,SSE,158,0.0,0.0,68,0.00,,,0.00,WUHU216HW,2013-02-19 02:20:00,
2013-02-18 21:25:00,31.3,22.0,29.94,SSE,158,0.0,0.0,68,0.00,,,0.00,WUHU216HW,2013-02-19 02:25:00,
2013-02-18 21:30:00,31.1,21.8,29.94,SSE,158,0.0,0.0,68,0.00,,,0.00,WUHU216HW,2013-02-19 02:30:00,
2013-02-18 21:35:00,31.1,22.1,29.94,SSE,158,0.0,0.0,69,0.00,,,0.00,WUHU216HW,2013-02-19 02:35:00,
2013-02-18 21:40:00,30.8,22.1,29.94,SSE,158,0.0,0.0,70,0.00,,,0.00,WUHU216HW,2013-02-19 02:40:00,
2013-02-18 21:45:00,30.6,22.0,29.94,SSE,158,0.0,0.0,70,0.00,,,0.00,WUHU216HW,2013-02-19 02:45:00,
2013-02-18 21:50:00,30.4,22.2,29.94,SSE,158,0.0,0.0,71,0.00,,,0.00,WUHU216HW,2013-02-19 02:50:00,
2013-02-18 21:55:00,30.4,21.8,29.94,SSE,158,0.0,0.0,70,0.00,,,0.00,WUHU216HW,2013-02-19 02:55:00,
2013-02-18 22:00:00,30.4,21.8,29.94,SSE,158,0.0,0.0,70,0.00,,,0.00,WUHU216HW,2013-02-19 03:00:00,
2013-02-18 22:05:00,30.2,21.6,29.93,SSE,158,0.0,0.0,70,0.00,,,0.00,WUHU216HW,2013-02-19 03:05:00,
2013-02-18 22:11:00,29.9,22.0,29.94,SSE,158,0.0,0.0,72,0.00,,,0.00,WUHU216HW,2013-02-19 03:11:00,
2013-02-18 22:16:00,29.9,22.0,29.94,SSE,158,0.0,0.0,72,0.00,,,0.00,WUHU216HW,2013-02-19 03:16:00,
2013-02-18 22:21:00,29.9,22.0,29.93,SSE,158,0.0,0.0,72,0.00,,,0.00,WUHU216HW,2013-02-19 03:21:00,
2013-02-18 22:26:00,29.9,22.0,29.93,SSE,158,0.0,0.0,72,0.00,,,0.00,WUHU216HW,2013-02-19 03:26:00,
2013-02-18 22:31:00,29.9,22.0,29.93,SSE,158,0.2,0.7,72,0.00,,,0.00,WUHU216HW,2013-02-19 03:31:00,
2013-02-18 22:36:00,29.7,22.1,29.93,SSE,158,0.0,0.7,73,0.00,,,0.00,WUHU216HW,2013-02-19 03:36:00,
2013-02-18 22:41:00,29.5,21.9,29.93,SSE,158,0.0,0.2,73,0.00,,,0.00,WUHU216HW,2013-02-19 03:41:00,
2013-02-18 22:46:00,29.5,21.9,29.93,SSE,158,0.0,0.0,73,0.00,,,0.00,WUHU216HW,2013-02-19 03:46:00,
2013-02-18 22:51:00,29.5,21.9,29.92,SSE,158,0.0,0.4,73,0.00,,,0.00,WUHU216HW,2013-02-19 03:51:00,
2013-02-18 22:56:00,29.5,21.9,29.92,SSE,158,0.0,0.4,73,0.00,,,0.00,WUHU216HW,2013-02-19 03:56:00,
2013-02-18 23:01:00,29.5,21.9,29.91,SSE,158,0.0,0.2,73,0.00,,,0.00,WUHU216HW,2013-02-19 04:01:00,
2013-02-18 23:06:00,29.3,21.8,29.91,SSE,158,0.0,0.0,73,0.00,,,0.00,WUHU216HW,2013-02-19 04:06:00,
2013-02-18 23:11:00,29.3,21.8,29.91,SSE,158,0.0,0.4,73,0.00,,,0.00,WUHU216HW,2013-02-19 04:11:00,
2013-02-18 23:16:00,29.2,21.6,29.90,SSE,158,0.0,0.4,73,0.00,,,0.00,WUHU216HW,2013-02-19 04:16:00,
2013-02-18 23:21:00,29.2,21.6,29.90,SSE,158,0.0,0.0,73,0.00,,,0.00,WUHU216HW,2013-02-19 04:21:00,
2013-02-18 23:26:00,29.2,21.9,29.90,SSE,158,0.0,0.0,74,0.00,,,0.00,WUHU216HW,2013-02-19 04:26:00,
2013-02-18 23:31:00,29.2,21.9,29.90,SSE,158,0.0,0.0,74,0.00,,,0.00,WUHU216HW,2013-02-19 04:31:00,
2013-02-18 23:36:00,29.2,21.9,29.90,SSE,158,0.2,0.4,74,0.00,,,0.00,WUHU216HW,2013-02-19 04:36:00,
2013-02-18 23:41:00,29.0,21.7,29.90,SSE,158,0.0,0.4,74,0.00,,,0.00,WUHU216HW,2013-02-19 04:41:00,
2013-02-18 23:46:00,29.0,21.7,29.89,SSE,158,0.0,0.4,74,0.00,,,0.00,WUHU216HW,2013-02-19 04:46:00,
2013-02-18 23:51:00,28.8,21.9,29.89,SSE,158,0.4,0.4,75,0.00,,,0.00,WUHU216HW,2013-02-19 04:51:00,
2013-02-18 23:56:00,28.6,21.7,29.89,SSE,158,0.0,0.4,75,0.00,,,0.00,WUHU216HW,2013-02-19 04:56:00,